Location: Étang Rond
(42.7927°N, 1.0661°E)
Time: 01:41:44
(UTC+00:00)

Gbstr 26 Del rocket - Pass Details

Date: 08 November 2025
Orbit: 489 x 1220 km, 51.8° (Epoch: 07 December)

Event Time Altitude Azimuth Distance (km) Brightness Sun altitude
Exits shadow 05:41:00 15° 278° (W) 1,894 4.9 -11.0°
Maximum altitude 05:44:58 41° 345° (NNW) 1,144 4.2 -10.2°
Drops below altitude 10° 05:50:47 10° 55° (NE) 2,641 6.9 -9.2°
Sets 05:53:48 0° 62° (ENE) 3,715 7.9 -8.7°
